Regional Weather Roundup
Issued by NWS Sterling, VA

Home | Current Version | Previous Version | Graphics & Text | Print | Product List | Glossary On
Versions: 1 2 3 4 5 6 7 8 9 10 11 12 13 14 15 16 17 18 19 20 21 22 23 24 25 26 27 28 29 30 31 32 33 34 35 36 37 38 39 40 41 42 43 44 45 46 47 48 49 50
000
ASUS41 KLWX 211410
RWRLWX

REGIONAL WEATHER ROUNDUP
NATIONAL WEATHER SERVICE BALTIMORE MD/WASHINGTON DC
900 AM EST SUN DEC 21 2014

Note: "FAIR" indicates few or no clouds below 12,000 feet
with no significant weather and/or obstructions to visibility.
 TC=TEMPERATURE CELSIUS

 * =Non NWS site. Station does not report precipitation (e.g. rain,
    snow, etc.), thunder, or fog.

DCZ001-MDZ009-015-VAZ040>042-051-053>054-211500-
WASHINGTON METRO

CITY           SKY/WX    TMP DP  RH WIND       PRES   REMARKS
WASHINGTON NAT CLOUDY    37  24  59 NE6       30.36R
DULLES         CLOUDY    32  24  72 NE3       30.35R
ANDREWS AFB    CLOUDY    33  24  68 N5        30.34R
FT BELVOIR     CLOUDY    35  28  75 CALM      30.36
QUANTICO       CLOUDY    35  26  69 NW3       30.37R
COLLEGE PARK*  CLOUDY    34  27  75 N3        30.35S
LEESBURG*      CLOUDY    32  28  86 CALM      30.36R
MANASSAS*      CLOUDY    34  30  86 N5        30.35R
GAITHERSBURG*  CLOUDY    30  21  69 CALM      30.38R

$$

MDZ006>007-011-014-211500-
BALTIMORE METRO

CITY           SKY/WX    TMP DP  RH WIND       PRES   REMARKS
BWI AIRPORT    PTSUNNY   33  23  66 CALM      30.35R
MD SCIENCE CTR   N/A     35  22  58 MISG      30.36R
MARTIN STATE   PTSUNNY   34  27  75 NW3       30.37R
ANNAPOLIS      CLOUDY    35  25  66 NW3       30.36R
FORT MEADE*    CLOUDY    32  28  86 CALM      30.38R

$$

MDZ012-015-019>023-211500-
MARYLAND EASTERN SHORE

CITY           SKY/WX    TMP DP  RH WIND       PRES   REMARKS
OCEAN CITY     CLOUDY    33  27  78 N3        30.34S
SALISBURY      CLOUDY    35  28  75 CALM      30.34R
BAY BRIDGE AP*   N/A     34  27  75 NW3       30.36R
CAMBRIDGE*     PTSUNNY   34  32  93 CALM      30.35R

$$

MDZ017>025-211500-
SOUTHERN MARYLAND

CITY           SKY/WX    TMP DP  RH WIND       PRES   REMARKS
PATUXENT RIVER CLOUDY    36  27  69 N6        30.34S
ST INIGOES     CLOUDY    36  25  64 CALM      30.34S
LEONARDTOWN*   CLOUDY    34  28  80 CALM      30.36R

$$

MDZ003>005-211500-
NORTH CENTRAL MARYLAND

CITY           SKY/WX    TMP DP  RH WIND       PRES   REMARKS
FREDERICK*     CLOUDY    34  21  60 CALM      30.38R
HAGERSTOWN APT CLOUDY    31  23  72 N3        30.33R
WESTMINSTER*   SUNNY     28  21  74 CALM      30.32R

$$

MDZ501>502-211500-
WESTERN MARYLAND

CITY           SKY/WX    TMP DP  RH WIND       PRES   REMARKS
OAKLAND*       CLOUDY    25 N/A N/A W5        30.20S HAZE
CUMBERLAND*    CLOUDY    32  27  80 CALM      30.36R

$$

VAZ025>031-211500-
SHENANDOAH VALLEY

CITY           SKY/WX    TMP DP  RH WIND       PRES   REMARKS
WINCHESTER*    CLOUDY    32  21  64 CALM      30.33R
FRONT ROYAL*   CLOUDY    32  25  74 CALM      30.33R
LURAY*         CLOUDY    34  28  80 CALM      30.31R
NEW MARKET*    CLOUDY    32  23  71 CALM      30.31R
STAUNTON*      CLOUDY    32  27  79 CALM      30.31R
WAYNESBORO*    CLOUDY    31  26  80 CALM      30.28S

$$

WVZ021-048>050-054>055-211500-
EASTERN WEST VIRGINIA PANHANDLE

CITY           SKY/WX    TMP DP  RH WIND       PRES   REMARKS
MARTINSBURG    CLOUDY    32  21  64 CALM      30.34R
PETERSBURG*    CLOUDY    33  26  75 CALM      30.32S

$$

VAZ036>039-050-211500-
CENTRAL FOOTHILLS

CITY           SKY/WX    TMP DP  RH WIND       PRES   REMARKS
CHARLOTTESVILL CLOUDY    33  25  72 NE3       30.32R
CULPEPER*      CLOUDY    34  28  80 CALM      30.35R
ORANGE*        CLOUDY    34  30  86 CALM      30.35R
GORDONSVILLE*  CLOUDY    33  27  77 CALM      30.33R
WARRENTON*     CLOUDY    34  32  90 CALM      30.34R

$$

VAZ055>057-211500-
NORTH AND CENTRAL PIEDMONT

CITY           SKY/WX    TMP DP  RH WIND       PRES   REMARKS
FREDERICKSBRG* CLOUDY    36  28  72 CALM      30.34R
STAFFORD*      CLOUDY    34  25  70 CALM      30.39R

$$

NCZ024-NYZ072-PAZ021-071-VAZ022-071-211500-
OTHER REGIONAL OBSERVATIONS

CITY           SKY/WX    TMP DP  RH WIND       PRES   REMARKS
NEW YORK CITY  CLOUDY    32  24  72 VRB3      30.32S
PHILADELPHIA   MOSUNNY   34  22  61 NW5       30.35R
PITTSBURGH     CLOUDY    29  21  72 CALM      30.30F
ROANOKE        CLOUDY    37  28  70 NE3       30.29S
RICHMOND       CLOUDY    37  25  61 E3        30.34R
RALEIGH        CLOUDY    39  33  79 E3        30.32R

$$

ANZ530>537-211500-
MARINE OBSERVATIONS

STATION/POSITION TIME  TEMP    WIND        PRES
                       AIR SEA DIR/SP/G
                 (UTC) (F)     (DEG/KT/KT) (MB)
THOMAS PT LIGHT  1400   35 40  350/  6/  7 1029.0R
BALT KEY BRIDGE  1400   34     330/  4/  5 1027.6R
COVE POINT       1400   35     340/  2/  3 1027.3F
LEWISETTA        1400   37 41   10/  4/  7 1027.0S
SOLOMONS ISLAND  1400      42                N/A

$$



USA.gov is the U.S. government's official web portal to all federal, state and local government web resources and services.